EW2670 Weather Reports


Display with metric or nautical units.
time (UTC)temp
F
wind
direction
speed
MPH
gust
MPH
rain 1hr
in
rain 24hr
in
rain mn
in
humidity
%
barometer
mb
20260503184516 73 225 8.0 12.0 0.00 0.00 0.00 16 1008.2
20260503184036 73 202 8.0 13.0 0.00 0.00 0.00 16 1008.3
20260503183517 72 180 6.0 11.0 0.00 0.00 0.00 16 1008.5
20260503183016 72 202 9.0 13.0 0.00 0.00 0.00 16 1008.6
20260503182516 72 225 7.0 10.0 0.00 0.00 0.00 16 1008.7
20260503182016 71 180 8.0 16.0 0.00 0.00 0.00 15 1008.6
20260503181516 72 202 11.0 17.0 0.00 0.00 0.00 15 1008.7
20260503181016 73 202 9.0 15.0 0.00 0.00 0.00 16 1008.8
20260503180517 72 202 9.0 13.0 0.00 0.00 0.00 16 1008.9
20260503180036 71 202 9.0 13.0 0.00 0.00 0.00 17 1008.9
20260503175516 71 202 9.0 14.0 0.00 0.00 0.00 17 1009.0
20260503175016 71 225 11.0 17.0 0.00 0.00 0.00 16 1009.1
20260503174516 71 225 13.0 18.0 0.00 0.00 0.00 16 1009.1
20260503174016 71 225 13.0 19.0 0.00 0.00 0.00 16 1009.2
20260503173516 71 225 15.0 20.0 0.00 0.00 0.00 16 1009.2
20260503173016 72 225 14.0 19.0 0.00 0.00 0.00 15 1009.2
20260503172516 71 225 16.0 24.0 0.00 0.00 0.00 16 1009.2
20260503172016 71 225 16.0 25.0 0.00 0.00 0.00 16 1009.1
20260503171516 71 225 16.0 21.0 0.00 0.00 0.00 16 1009.1
20260503171016 72 225 13.0 18.0 0.00 0.00 0.00 16 1009.2
20260503170516 71 202 14.0 20.0 0.00 0.00 0.00 16 1009.3
20260503150516 70 247 12.0 19.0 0.00 0.00 0.00 17 1010.0
20260503131016 60 180 4.0 6.0 0.00 0.00 0.00 26 1011.8
20260503130538 60 180 5.0 10.0 0.00 0.00 0.00 25 1011.9
20260503110517 52 202 3.0 6.0 0.00 0.00 0.00 31 1011.6
20260503081537 46 0.0 1.0 0.00 0.00 0.00 35 1012.0
20260503081017 47 0.0 2.0 0.00 0.00 0.00 35 1012.2
20260503080537 46 0 1.0 2.0 0.00 0.00 0.00 35 1012.3
20260503072517 53 337 2.0 3.0 0.00 0.00 0.00 27 1012.9
20260503072017 53 337 2.0 4.0 0.00 0.00 0.00 26 1013.0
20260503071517 54 225 5.0 7.0 0.00 0.00 0.00 25 1013.0
20260503071017 53 180 2.0 7.0 0.00 0.00 0.00 26 1013.0
20260503070537 52 0.0 2.0 0.00 0.00 0.00 27 1012.9
20260503055035 54 270 3.0 7.0 0.00 0.00 0.00 23 1013.2
20260503054516 55 270 3.0 5.0 0.00 0.00 0.00 22 1013.3
20260503054016 55 270 5.0 7.0 0.00 0.00 0.00 24 1013.4
20260503053556 54 270 5.0 8.0 0.00 0.00 0.00 26 1013.2
20260503053015 53 270 4.0 7.0 0.00 0.00 0.00 26 1013.1
20260503052515 52 270 3.0 5.0 0.00 0.00 0.00 25 1012.9
20260503052036 51 270 3.0 5.0 0.00 0.00 0.00 28 1013.0
20260503051556 48 270 1.0 3.0 0.00 0.00 0.00 32 1012.9
20260503051016 47 0.0 2.0 0.00 0.00 0.00 29 1012.7
20260503050515 46 0.0 0.0 0.00 0.00 0.00 28 1012.8
20260503050018 48 0 2.0 2.0 0.00 0.00 0.00 25 1013.0
20260503045517 48 0 1.0 2.0 0.00 0.00 0.00 25 1012.9
20260503045015 47 0.0 0.0 0.00 0.00 0.00 27 1012.8
20260503044518 46 0.0 0.0 0.00 0.00 0.00 30 1013.0
20260503044017 47 0.0 1.0 0.00 0.00 0.00 26 1013.0
20260503043518 48 0.0 2.0 0.00 0.00 0.00 26 1013.2
20260503043016 49 0 1.0 2.0 0.00 0.00 0.00 23 1013.2
20260503042518 49 67 1.0 2.0 0.00 0.00 0.00 28 1013.2
20260503042018 48 67 2.0 5.0 0.00 0.00 0.00 30 1013.3
20260503041517 48 225 2.0 3.0 0.00 0.00 0.00 30 1013.0
20260503041016 45 0.0 2.0 0.00 0.00 0.00 27 1012.9
20260503040518 45 225 1.0 2.0 0.00 0.00 0.00 36 1012.9
20260503040058 46 225 1.0 2.0 0.00 0.00 0.00 36 1012.9
20260503035518 47 0.0 0.0 0.00 0.00 0.00 27 1012.9
20260503035017 48 0.0 0.0 0.00 0.00 0.00 26 1012.8
20260503034515 49 0.0 0.0 0.00 0.00 0.00 27 1012.7
20260503034017 52 0.0 2.0 0.00 0.00 0.00 26 1013.0
20260503033518 51 0.0 1.0 0.00 0.00 0.00 26 1012.8
20260503033018 51 225 1.0 2.0 0.00 0.00 0.00 24 1012.7
20260503032517 50 225 2.0 3.0 0.00 0.00 0.00 25 1012.6
20260503032017 49 225 2.0 3.0 0.00 0.00 0.00 31 1012.5
20260503031517 48 0.0 0.0 0.00 0.00 0.00 43 1012.5
20260503031017 48 0.0 2.0 0.00 0.00 0.00 43 1012.3
20260503030517 48 0.0 0.0 0.00 0.00 0.00 46 1012.5
20260503030019 49 0.0 0.0 0.00 0.00 0.00 48 1012.3
20260503025517 50 0.0 0.0 0.00 0.00 0.00 40 1012.4
20260503025017 52 0.0 0.0 0.00 0.00 0.00 38 1012.3
20260503024517 52 0.0 0.0 0.00 0.00 0.00 37 1012.4
20260503024017 51 0.0 0.0 0.00 0.00 0.00 39 1012.2
20260503023517 50 0.0 0.0 0.00 0.00 0.00 37 1012.0
20260503023018 49 0.0 0.0 0.00 0.00 0.00 45 1012.2
20260503022517 50 0.0 0.0 0.00 0.00 0.00 40 1012.1
20260503022017 50 0.0 0.0 0.00 0.00 0.00 44 1012.1
20260503021517 52 0.0 0.0 0.00 0.00 0.00 44 1012.2
20260503021017 55 0.0 0.0 0.00 0.00 0.00 22 1012.1
20260503020517 57 0.0 0.0 0.00 0.00 0.00 19 1012.2
20260503020018 58 0.0 0.0 0.00 0.00 0.00 16 1012.2
20260503015517 60 0.0 0.0 0.00 0.00 0.00 16 1012.2
20260503015017 62 0.0 1.0 0.00 0.00 0.00 14 1012.2
20260503014537 62 0.0 0.0 0.00 0.00 0.00 14 1012.2
20260503014017 62 0.0 0.0 0.00 0.00 0.00 14 1012.2
20260503013517 63 0.0 0.0 0.00 0.00 0.00 14 1012.1
20260503013037 63 0.0 0.0 0.00 0.00 0.00 14 1012.1
20260503012517 64 0.0 0.0 0.00 0.00 0.00 13 1012.1
20260503012017 65 0.0 0.0 0.00 0.00 0.00 12 1012.0
20260503011517 66 0.0 2.0 0.00 0.00 0.00 12 1012.0
20260503011018 67 0.0 3.0 0.00 0.00 0.00 12 1012.1
20260503010517 68 45 2.0 5.0 0.00 0.00 0.00 11 1012.0
20260503010017 69 45 2.0 4.0 0.00 0.00 0.00 10 1012.0
20260503005517 69 45 2.0 5.0 0.00 0.00 0.00 10 1011.8
20260503005037 69 67 3.0 6.0 0.00 0.00 0.00 10 1011.9
20260503004518 69 45 2.0 6.0 0.00 0.00 0.00 11 1011.9
20260503004017 69 67 3.0 8.0 0.00 0.00 0.00 11 1011.8
20260503003517 70 45 2.0 7.0 0.00 0.00 0.00 11 1011.8
20260503003017 70 67 2.0 5.0 0.00 0.00 0.00 11 1011.8
20260503002537 70 67 4.0 8.0 0.00 0.00 0.00 11 1011.8
20260503002037 70 45 2.0 5.0 0.00 0.00 0.00 12 1011.9
20260503001517 70 90 6.0 10.0 0.00 0.00 0.00 11 1011.8
20260503001017 70 90 7.0 13.0 0.00 0.00 0.00 11 1011.9
20260503000537 70 90 7.0 11.0 0.00 0.00 0.00 12 1012.0
20260503000017 71 90 6.0 11.0 0.00 0.00 0.00 12 1012.0
20260502235518 70 45 2.0 5.0 0.00 0.00 0.00 11 1012.3
20260502235057 70 45 4.0 7.0 0.00 0.00 0.00 11 1012.3
20260502234517 71 67 5.0 8.0 0.00 0.00 0.00 11 1012.3
20260502234017 71 67 6.0 10.0 0.00 0.00 0.00 11 1012.2
20260502233537 71 90 5.0 9.0 0.00 0.00 0.00 11 1012.2
20260502233017 71 90 4.0 8.0 0.00 0.00 0.00 12 1012.4
20260502232517 70 90 7.0 11.0 0.00 0.00 0.00 12 1012.4
20260502232017 71 90 6.0 11.0 0.00 0.00 0.00 12 1012.6
20260502231517 72 67 4.0 10.0 0.00 0.00 0.00 12 1012.7
20260502231017 71 90 6.0 13.0 0.00 0.00 0.00 13 1012.6
20260502230537 71 0 5.0 10.0 0.00 0.00 0.00 12 1012.6
20260502230017 72 67 5.0 10.0 0.00 0.00 0.00 13 1012.8
20260502225517 70 90 7.0 11.0 0.00 0.00 0.00 13 1012.8
20260502225037 71 90 6.0 11.0 0.00 0.00 0.00 13 1013.0
20260502224538 71 90 5.0 10.0 0.00 0.00 0.00 12 1013.0
20260502224017 72 67 4.0 7.0 0.00 0.00 0.00 13 1013.1
20260502223517 71 45 5.0 11.0 0.00 0.00 0.00 13 1013.1
20260502223017 70 90 7.0 13.0 0.00 0.00 0.00 13 1013.0
20260502222517 71 112 7.0 14.0 0.00 0.00 0.00 13 1013.0
20260502222016 71 45 4.0 8.0 0.00 0.00 0.00 13 1013.2
20260502221517 70 67 6.0 11.0 0.00 0.00 0.00 13 1013.4
20260502221037 71 67 6.0 14.0 0.00 0.00 0.00 14 1013.5
20260502220516 71 22 4.0 10.0 0.00 0.00 0.00 13 1013.6
20260502220016 70 67 3.0 7.0 0.00 0.00 0.00 14 1013.5
20260502215517 70 45 2.0 5.0 0.00 0.00 0.00 13 1013.5
20260502215017 70 90 7.0 14.0 0.00 0.00 0.00 14 1013.7
20260502214517 70 112 5.0 13.0 0.00 0.00 0.00 14 1013.9
20260502214017 70 22 4.0 10.0 0.00 0.00 0.00 14 1014.0
20260502213517 70 67 5.0 14.0 0.00 0.00 0.00 14 1014.0
20260502213016 70 67 8.0 14.0 0.00 0.00 0.00 14 1014.3
20260502212516 69 180 4.0 8.0 0.00 0.00 0.00 13 1014.3
20260502212016 70 135 8.0 15.0 0.00 0.00 0.00 13 1014.4
20260502211538 70 112 10.0 16.0 0.00 0.00 0.00 13 1014.7
20260502211037 70 90 8.0 16.0 0.00 0.00 0.00 15 1014.7
20260502210516 71 67 6.0 12.0 0.00 0.00 0.00 13 1014.9
20260502210016 69 90 4.0 13.0 0.00 0.00 0.00 14 1015.0
20260502205537 69 67 5.0 10.0 0.00 0.00 0.00 13 1015.1
20260502205017 69 90 7.0 13.0 0.00 0.00 0.00 14 1015.4
20260502204517 70 67 5.0 10.0 0.00 0.00 0.00 14 1015.4
20260502204017 70 0 4.0 8.0 0.00 0.00 0.00 14 1015.3
20260502203516 70 45 3.0 9.0 0.00 0.00 0.00 14 1015.3
20260502203017 70 67 5.0 10.0 0.00 0.00 0.00 15 1015.4
20260502202516 68 90 4.0 10.0 0.00 0.00 0.00 15 1015.3
20260502202016 69 22 5.0 10.0 0.00 0.00 0.00 15 1015.6
20260502201536 69 45 4.0 13.0 0.00 0.00 0.00 15 1015.6
20260502201016 68 67 6.0 10.0 0.00 0.00 0.00 15 1015.7
20260502200517 68 45 4.0 9.0 0.00 0.00 0.00 15 1015.7
20260502200017 69 67 4.0 8.0 0.00 0.00 0.00 17 1015.8
20260502195517 68 67 6.0 10.0 0.00 0.00 0.00 15 1015.5
20260502195016 68 112 6.0 12.0 0.00 0.00 0.00 16 1015.6
20260502194517 67 90 7.0 13.0 0.00 0.00 0.00 16 1015.7
20260502194037 68 67 4.0 11.0 0.00 0.00 0.00 16 1015.7
20260502193517 67 22 3.0 10.0 0.00 0.00 0.00 17 1015.9
20260502193016 67 112 6.0 13.0 0.00 0.00 0.00 16 1016.0
20260502192516 67 90 6.0 14.0 0.00 0.00 0.00 17 1016.0
20260502192016 66 90 6.0 13.0 0.00 0.00 0.00 16 1016.0
20260502191517 66 112 5.0 11.0 0.00 0.00 0.00 16 1016.1
20260502191036 67 22 3.0 10.0 0.00 0.00 0.00 16 1016.2
20260502190516 67 45 2.0 8.0 0.00 0.00 0.00 16 1016.4
20260502190017 66 90 4.0 8.0 0.00 0.00 0.00 17 1016.4
20260502185536 66 22 5.0 8.0 0.00 0.00 0.00 17 1016.5
20260502185016 67 45 5.0 10.0 0.00 0.00 0.00 16 1016.8